| time (UTC) | temp F | wind direction | speed knots | gust knots | rain 1hr in | rain 24hr in | rain mn in | humidity % | barometer mb |
| 20260504050603 | 45 | 199 | 2.6 | 8.7 | 0.00 | 0.00 | 0.00 | 74 | 1006.7 |
| 20260504050106 | 46 | 205 | 3.5 | 8.7 | 0.00 | 0.00 | 0.00 | 73 | 1006.8 |
| 20260504045611 | 46 | 204 | 2.6 | 8.7 | 0.00 | 0.00 | 0.00 | 72 | 1006.9 |
| 20260504045102 | 46 | 193 | 2.6 | 6.1 | 0.00 | 0.00 | 0.00 | 72 | 1006.9 |
| 20260504044603 | 46 | 188 | 2.6 | 6.1 | 0.00 | 0.00 | 0.00 | 71 | 1006.9 |
| 20260504044444 | 47 | 210 | 2.6 | 7.0 | 0.00 | 0.00 | 0.00 | 70 | 1006.9 |
| 20260504043603 | 47 | 205 | 2.6 | 7.0 | 0.00 | 0.00 | 0.00 | 70 | 1006.9 |
| 20260504043443 | 47 | 197 | 2.6 | 7.0 | 0.00 | 0.00 | 0.00 | 69 | 1007.0 |
| 20260504042624 | 48 | 226 | 2.6 | 7.0 | 0.00 | 0.00 | 0.00 | 69 | 1007.0 |
| 20260504042102 | 48 | 202 | 2.6 | 7.0 | 0.00 | 0.00 | 0.00 | 69 | 1007.0 |
| 20260504041605 | 48 | 196 | 2.6 | 8.7 | 0.00 | 0.00 | 0.00 | 69 | 1006.9 |
| 20260504041446 | 49 | 199 | 3.5 | 9.6 | 0.00 | 0.00 | 0.00 | 68 | 1006.9 |
| 20260504040939 | 49 | 210 | 3.5 | 9.6 | 0.00 | 0.00 | 0.00 | 68 | 1006.9 |
| 20260504040107 | 49 | 221 | 2.6 | 7.8 | 0.00 | 0.00 | 0.00 | 68 | 1006.8 |
| 20260504035605 | 49 | 248 | 2.6 | 7.0 | 0.00 | 0.00 | 0.00 | 68 | 1006.9 |
| 20260504035442 | 49 | 209 | 2.6 | 8.7 | 0.00 | 0.00 | 0.00 | 68 | 1006.8 |
| 20260504034605 | 49 | 198 | 2.6 | 8.7 | 0.00 | 0.00 | 0.00 | 68 | 1006.9 |
| 20260504034104 | 49 | 173 | 2.6 | 7.8 | 0.00 | 0.00 | 0.00 | 67 | 1006.8 |
| 20260504033938 | 49 | 248 | 3.5 | 8.7 | 0.00 | 0.00 | 0.00 | 67 | 1006.9 |
| 20260504033103 | 49 | 230 | 3.5 | 8.7 | 0.00 | 0.00 | 0.00 | 67 | 1006.9 |
| 20260504032938 | 49 | 250 | 2.6 | 8.7 | 0.00 | 0.00 | 0.00 | 67 | 1006.9 |
| 20260504032102 | 49 | 212 | 2.6 | 8.7 | 0.00 | 0.00 | 0.00 | 66 | 1006.8 |
| 20260504031603 | 49 | 246 | 2.6 | 7.8 | 0.00 | 0.00 | 0.00 | 66 | 1006.9 |
| 20260504031102 | 49 | 207 | 2.6 | 7.8 | 0.00 | 0.00 | 0.00 | 65 | 1007.0 |
| 20260504030636 | 49 | 211 | 2.6 | 6.1 | 0.00 | 0.00 | 0.00 | 65 | 1007.0 |
| 20260504030316 | 49 | 202 | 3.5 | 7.8 | 0.00 | 0.00 | 0.00 | 63 | 1007.1 |
| 20260504030220 | 49 | 230 | 2.6 | 7.8 | 0.00 | 0.00 | 0.00 | 64 | 1007.0 |
| 20260504024600 | 49 | 190 | 2.6 | 7.0 | 0.00 | 0.00 | 0.00 | 62 | 1007.1 |
| 20260504024101 | 49 | 175 | 2.6 | 9.6 | 0.00 | 0.00 | 0.00 | 61 | 1007.2 |
| 20260504023602 | 49 | 195 | 3.5 | 9.6 | 0.00 | 0.00 | 0.00 | 61 | 1007.2 |
| 20260504023100 | 49 | 198 | 2.6 | 7.0 | 0.00 | 0.00 | 0.00 | 60 | 1007.2 |
| 20260504022603 | 49 | 240 | 2.6 | 7.0 | 0.00 | 0.00 | 0.00 | 59 | 1007.2 |
| 20260504022534 | 49 | 244 | 2.6 | 7.0 | 0.00 | 0.00 | 0.00 | 59 | 1007.1 |
| 20260504021557 | 49 | 239 | 2.6 | 7.8 | 0.00 | 0.00 | 0.00 | 58 | 1007.2 |
| 20260504021057 | 49 | 218 | 2.6 | 7.8 | 0.00 | 0.00 | 0.00 | 58 | 1007.1 |
| 20260504020557 | 49 | 229 | 3.5 | 10.4 | 0.00 | 0.00 | 0.00 | 58 | 1007.1 |
| 20260504020454 | 49 | 215 | 3.5 | 10.4 | 0.00 | 0.00 | 0.00 | 57 | 1007.1 |
| 20260504015934 | 49 | 216 | 3.5 | 9.6 | 0.00 | 0.00 | 0.00 | 57 | 1007.0 |
| 20260504015059 | 49 | 231 | 3.5 | 12.2 | 0.00 | 0.00 | 0.00 | 57 | 1007.1 |
| 20260504014931 | 49 | 231 | 4.3 | 12.2 | 0.00 | 0.00 | 0.00 | 56 | 1007.1 |
| 20260504014456 | 49 | 227 | 3.5 | 10.4 | 0.00 | 0.00 | 0.00 | 57 | 1007.1 |
| 20260504013553 | 49 | 213 | 3.5 | 8.7 | 0.00 | 0.00 | 0.00 | 57 | 1007.2 |
| 20260504013055 | 49 | 236 | 3.5 | 8.7 | 0.00 | 0.00 | 0.00 | 56 | 1007.1 |
| 20260504012552 | 49 | 211 | 3.5 | 7.8 | 0.00 | 0.00 | 0.00 | 56 | 1007.1 |
| 20260504012520 | 49 | 256 | 3.5 | 7.8 | 0.00 | 0.00 | 0.00 | 56 | 1007.1 |
| 20260504011552 | 49 | 217 | 3.5 | 8.7 | 0.00 | 0.00 | 0.00 | 56 | 1007.1 |
| 20260504011053 | 49 | 206 | 4.3 | 8.7 | 0.00 | 0.00 | 0.00 | 57 | 1007.1 |
| 20260504010553 | 49 | 217 | 4.3 | 10.4 | 0.00 | 0.00 | 0.00 | 56 | 1007.0 |
| 20260504010054 | 48 | 165 | 4.3 | 10.4 | 0.00 | 0.00 | 0.00 | 57 | 1006.9 |
| 20260504005944 | 48 | 205 | 5.2 | 9.6 | 0.00 | 0.00 | 0.00 | 57 | 1006.9 |
| 20260504005051 | 49 | 204 | 4.3 | 9.6 | 0.00 | 0.00 | 0.00 | 57 | 1006.8 |
| 20260504004551 | 49 | 194 | 4.3 | 9.6 | 0.00 | 0.00 | 0.00 | 56 | 1006.8 |
| 20260504004052 | 49 | 187 | 4.3 | 8.7 | 0.00 | 0.00 | 0.00 | 55 | 1006.8 |
| 20260504003547 | 49 | 200 | 4.3 | 8.7 | 0.00 | 0.00 | 0.00 | 55 | 1006.8 |
| 20260504003047 | 49 | 202 | 4.3 | 9.6 | 0.00 | 0.00 | 0.00 | 55 | 1006.8 |
| 20260504002547 | 49 | 198 | 4.3 | 9.6 | 0.00 | 0.00 | 0.00 | 55 | 1006.8 |
| 20260504002523 | 50 | 210 | 4.3 | 13.0 | 0.00 | 0.00 | 0.00 | 55 | 1006.8 |
| 20260504001542 | 50 | 188 | 5.2 | 13.0 | 0.00 | 0.00 | 0.00 | 54 | 1006.8 |
| 20260504001436 | 50 | 173 | 5.2 | 13.0 | 0.00 | 0.00 | 0.00 | 55 | 1006.8 |
| 20260504000544 | 50 | 207 | 4.3 | 13.0 | 0.00 | 0.00 | 0.00 | 55 | 1006.8 |
| 20260504000042 | 50 | 206 | 4.3 | 15.6 | 0.00 | 0.00 | 0.00 | 55 | 1006.8 |
| 20260503235544 | 51 | 197 | 5.2 | 15.6 | 0.00 | 0.00 | 0.00 | 55 | 1006.7 |
| 20260503235110 | 51 | 182 | 5.2 | 15.6 | 0.00 | 0.00 | 0.00 | 55 | 1006.7 |
| 20260503234544 | 51 | 180 | 4.3 | 15.6 | 0.00 | 0.00 | 0.00 | 54 | 1006.7 |
| 20260503234051 | 51 | 186 | 5.2 | 13.9 | 0.00 | 0.00 | 0.00 | 54 | 1006.7 |
| 20260503234043 | 51 | 219 | 5.2 | 11.3 | 0.00 | 0.00 | 0.00 | 55 | 1006.7 |
| 20260503233600 | 51 | 186 | 5.2 | 13.9 | 0.00 | 0.00 | 0.00 | 54 | 1006.7 |
| 20260503232736 | 52 | 186 | 5.2 | 10.4 | 0.00 | 0.00 | 0.00 | 53 | 1006.7 |
| 20260503231541 | 52 | 191 | 6.1 | 13.0 | 0.00 | 0.00 | 0.00 | 53 | 1006.7 |
| 20260503231433 | 53 | 250 | 7.0 | 13.0 | 0.00 | 0.00 | 0.00 | 51 | 1006.7 |
| 20260503230543 | 53 | 185 | 6.1 | 15.6 | 0.00 | 0.00 | 0.00 | 51 | 1006.7 |
| 20260503230418 | 54 | 192 | 5.2 | 15.6 | 0.00 | 0.00 | 0.00 | 50 | 1006.7 |
| 20260503225542 | 54 | 219 | 5.2 | 13.9 | 0.00 | 0.00 | 0.00 | 48 | 1006.7 |
| 20260503225058 | 54 | 198 | 6.1 | 14.8 | 0.00 | 0.00 | 0.00 | 48 | 1006.7 |
| 20260503224542 | 55 | 190 | 6.1 | 14.8 | 0.00 | 0.00 | 0.00 | 46 | 1006.7 |
| 20260503224426 | 55 | 205 | 5.2 | 12.2 | 0.00 | 0.00 | 0.00 | 46 | 1006.7 |
| 20260503223541 | 55 | 191 | 6.1 | 14.8 | 0.00 | 0.00 | 0.00 | 45 | 1006.7 |
| 20260503223419 | 55 | 201 | 5.2 | 14.8 | 0.00 | 0.00 | 0.00 | 45 | 1006.7 |
| 20260503222835 | 55 | 178 | 5.2 | 13.0 | 0.00 | 0.00 | 0.00 | 44 | 1006.7 |
| 20260503222718 | 55 | 202 | 5.2 | 13.0 | 0.00 | 0.00 | 0.00 | 45 | 1006.7 |
| 20260503221540 | 56 | 168 | 6.1 | 14.8 | 0.00 | 0.00 | 0.00 | 45 | 1006.7 |
| 20260503221034 | 56 | 205 | 6.1 | 14.8 | 0.00 | 0.00 | 0.00 | 43 | 1006.8 |
| 20260503220534 | 56 | 197 | 5.2 | 14.8 | 0.00 | 0.00 | 0.00 | 43 | 1006.7 |
| 20260503220034 | 56 | 200 | 5.2 | 13.0 | 0.00 | 0.00 | 0.00 | 44 | 1006.8 |
| 20260503215536 | 56 | 209 | 6.1 | 12.2 | 0.00 | 0.00 | 0.00 | 43 | 1006.7 |
| 20260503215035 | 56 | 207 | 6.1 | 12.2 | 0.00 | 0.00 | 0.00 | 44 | 1006.8 |
| 20260503214535 | 56 | 202 | 5.2 | 12.2 | 0.00 | 0.00 | 0.00 | 42 | 1006.7 |
| 20260503214034 | 56 | 217 | 5.2 | 12.2 | 0.00 | 0.00 | 0.00 | 44 | 1006.8 |
| 20260503213811 | 58 | 212 | 5.2 | 12.2 | 0.00 | 0.00 | 0.00 | 41 | 1006.8 |
| 20260503213703 | 56 | 192 | 5.2 | 12.2 | 0.00 | 0.00 | 0.00 | 42 | 1006.8 |
| 20260503212536 | 58 | 202 | 5.2 | 11.3 | 0.00 | 0.00 | 0.00 | 38 | 1006.7 |
| 20260503212032 | 58 | 184 | 5.2 | 11.3 | 0.00 | 0.00 | 0.00 | 37 | 1006.8 |
| 20260503211532 | 58 | 200 | 4.3 | 11.3 | 0.00 | 0.00 | 0.00 | 35 | 1006.8 |
| 20260503211033 | 58 | 196 | 4.3 | 12.2 | 0.00 | 0.00 | 0.00 | 35 | 1006.9 |
| 20260503210535 | 59 | 227 | 5.2 | 12.2 | 0.00 | 0.00 | 0.00 | 35 | 1006.9 |
| 20260503210031 | 59 | 235 | 4.3 | 12.2 | 0.00 | 0.00 | 0.00 | 36 | 1006.9 |
| 20260503205919 | 58 | 277 | 5.2 | 13.0 | 0.00 | 0.00 | 0.00 | 36 | 1006.9 |
| 20260503205033 | 58 | 212 | 6.1 | 13.0 | 0.00 | 0.00 | 0.00 | 35 | 1007.0 |
| 20260503204533 | 58 | 252 | 4.3 | 10.4 | 0.00 | 0.00 | 0.00 | 37 | 1007.0 |
| 20260503204031 | 57 | 279 | 3.5 | 10.4 | 0.00 | 0.00 | 0.00 | 36 | 1007.0 |
| 20260503203532 | 58 | 248 | 4.3 | 10.4 | 0.00 | 0.00 | 0.00 | 35 | 1007.1 |
| 20260503203032 | 59 | 254 | 4.3 | 10.4 | 0.00 | 0.00 | 0.00 | 37 | 1007.2 |
| 20260503202532 | 59 | 266 | 5.2 | 9.6 | 0.00 | 0.00 | 0.00 | 37 | 1007.2 |
| 20260503202031 | 57 | 214 | 4.3 | 9.6 | 0.00 | 0.00 | 0.00 | 39 | 1007.3 |
| 20260503202011 | 57 | 220 | 3.5 | 10.4 | 0.00 | 0.00 | 0.00 | 39 | 1007.4 |
| 20260503201030 | 58 | 219 | 3.5 | 10.4 | 0.00 | 0.00 | 0.00 | 36 | 1007.4 |
| 20260503200531 | 59 | 189 | 4.3 | 10.4 | 0.00 | 0.00 | 0.00 | 35 | 1007.5 |
| 20260503200033 | 58 | 242 | 4.3 | 11.3 | 0.00 | 0.00 | 0.00 | 40 | 1007.6 |
| 20260503195918 | 57 | 294 | 3.5 | 11.3 | 0.00 | 0.00 | 0.00 | 40 | 1007.6 |
| 20260503195037 | 56 | 209 | 3.5 | 9.6 | 0.00 | 0.00 | 0.00 | 39 | 1007.7 |
| 20260503194532 | 56 | 268 | 4.3 | 11.3 | 0.00 | 0.00 | 0.00 | 37 | 1007.8 |
| 20260503194034 | 58 | 309 | 6.1 | 15.6 | 0.00 | 0.00 | 0.00 | 38 | 1007.9 |
| 20260503193531 | 57 | 277 | 6.1 | 15.6 | 0.00 | 0.00 | 0.00 | 40 | 1008.0 |
| 20260503193031 | 57 | 262 | 5.2 | 13.0 | 0.00 | 0.00 | 0.00 | 40 | 1008.0 |
| 20260503192531 | 57 | 203 | 5.2 | 13.0 | 0.00 | 0.00 | 0.00 | 37 | 1008.1 |
| 20260503192031 | 58 | 244 | 4.3 | 12.2 | 0.00 | 0.00 | 0.00 | 39 | 1008.1 |
| 20260503191957 | 57 | 219 | 4.3 | 10.4 | 0.00 | 0.00 | 0.00 | 43 | 1008.2 |
| 20260503191031 | 56 | 216 | 4.3 | 11.3 | 0.00 | 0.00 | 0.00 | 39 | 1008.3 |
| 20260503190529 | 57 | 248 | 5.2 | 12.2 | 0.00 | 0.00 | 0.00 | 39 | 1008.4 |
| 20260503190030 | 57 | 339 | 4.3 | 13.9 | 0.00 | 0.00 | 0.00 | 42 | 1008.4 |
| 20260503185529 | 56 | 223 | 5.2 | 13.9 | 0.00 | 0.00 | 0.00 | 41 | 1008.5 |
| 20260503185401 | 56 | 218 | 6.1 | 14.8 | 0.00 | 0.00 | 0.00 | 39 | 1008.5 |
| 20260503184528 | 57 | 277 | 6.1 | 14.8 | 0.00 | 0.00 | 0.00 | 40 | 1008.5 |
| 20260503184411 | 56 | 262 | 4.3 | 12.2 | 0.00 | 0.00 | 0.00 | 39 | 1008.6 |
| 20260503183534 | 55 | 309 | 4.3 | 10.4 | 0.00 | 0.00 | 0.00 | 38 | 1008.7 |
| 20260503183144 | 57 | 215 | 3.5 | 12.2 | 0.00 | 0.00 | 0.00 | 45 | 1008.9 |
| 20260503183109 | 56 | 200 | 4.3 | 12.2 | 0.00 | 0.00 | 0.00 | 38 | 1008.8 |
| 20260503181529 | 55 | 250 | 5.2 | 11.3 | 0.00 | 0.00 | 0.00 | 40 | 1009.1 |
| 20260503181029 | 56 | 257 | 3.5 | 11.3 | 0.00 | 0.00 | 0.00 | 39 | 1009.1 |
| 20260503180913 | 56 | 247 | 2.6 | 12.2 | 0.00 | 0.00 | 0.00 | 47 | 1009.1 |
| 20260503180029 | 55 | 217 | 5.2 | 13.9 | 0.00 | 0.00 | 0.00 | 43 | 1009.1 |
| 20260503175530 | 54 | 268 | 5.2 | 13.9 | 0.00 | 0.00 | 0.00 | 42 | 1009.1 |
| 20260503175030 | 54 | 299 | 4.3 | 9.6 | 0.00 | 0.00 | 0.00 | 42 | 1009.1 |
| 20260503174611 | 55 | 273 | 4.3 | 10.4 | 0.00 | 0.00 | 0.00 | 41 | 1009.3 |
| 20260503174157 | 55 | 9 | 5.2 | 10.4 | 0.00 | 0.00 | 0.00 | 44 | 1009.4 |
| 20260503173029 | 55 | 307 | 6.1 | 12.2 | 0.00 | 0.00 | 0.00 | 44 | 1009.3 |
| 20260503172803 | 54 | 238 | 5.2 | 11.3 | 0.00 | 0.00 | 0.00 | 45 | 1009.6 |
| 20260503172657 | 55 | 261 | 6.1 | 12.2 | 0.00 | 0.00 | 0.00 | 45 | 1009.6 |
| 20260503171551 | 54 | 265 | 5.2 | 11.3 | 0.00 | 0.00 | 0.00 | 45 | 1009.7 |
| 20260503171032 | 54 | 246 | 5.2 | 12.2 | 0.00 | 0.00 | 0.00 | 45 | 1009.8 |
| 20260503170532 | 54 | 298 | 5.2 | 12.2 | 0.00 | 0.00 | 0.00 | 46 | 1009.9 |
| 20260503170306 | 54 | 348 | 3.5 | 7.8 | 0.00 | 0.00 | 0.00 | 47 | 1009.9 |
| 20260503170204 | 55 | 256 | 3.5 | 7.8 | 0.00 | 0.00 | 0.00 | 44 | 1009.9 |
| 20260503150525 | 52 | 297 | 3.5 | 9.6 | 0.00 | 0.01 | 0.00 | 53 | 1011.2 |
| 20260503131011 | 47 | 169 | 1.7 | 6.1 | 0.00 | 0.01 | 0.00 | 68 | 1012.1 |
| 20260503130854 | 46 | 234 | 1.7 | 6.1 | 0.00 | 0.01 | 0.00 | 67 | 1012.2 |
| 20260503120140 | 41 | 267 | 1.7 | 6.1 | 0.00 | 0.01 | 0.00 | 78 | 1012.2 |
| 20260503110512 | 38 | 254 | 1.7 | 2.6 | 0.00 | 0.01 | 0.00 | 84 | 1011.9 |
| 20260503110238 | 38 | 255 | 0.9 | 2.6 | 0.00 | 0.01 | 0.00 | 84 | 1012.0 |
| 20260503110136 | 38 | 255 | 1.7 | 2.6 | 0.00 | 0.01 | 0.00 | 84 | 1012.0 |
| 20260503090502 | 37 | 265 | 0.9 | 1.7 | 0.00 | 0.01 | 0.00 | 85 | 1012.0 |
| 20260503081506 | 37 | 265 | 0.0 | 1.7 | 0.00 | 0.01 | 0.00 | 87 | 1012.1 |
| 20260503081006 | 37 | 265 | 0.0 | 1.7 | 0.00 | 0.01 | 0.00 | 87 | 1012.1 |
| 20260503080505 | 38 | 265 | 0.0 | 1.7 | 0.00 | 0.01 | 0.00 | 88 | 1012.1 |
| 20260503080231 | 38 | 265 | 0.9 | 2.6 | 0.00 | 0.01 | 0.00 | 88 | 1012.2 |
| 20260503080127 | 38 | 265 | 0.9 | 2.6 | 0.00 | 0.01 | 0.00 | 88 | 1012.1 |
| 20260503072502 | 38 | 259 | 0.9 | 2.6 | 0.00 | 0.01 | 0.00 | 89 | 1012.1 |
| 20260503072001 | 38 | 259 | 0.9 | 2.6 | 0.00 | 0.01 | 0.00 | 89 | 1012.2 |
| 20260503071503 | 38 | 259 | 0.9 | 1.7 | 0.00 | 0.01 | 0.00 | 89 | 1012.2 |
| 20260503071001 | 38 | 259 | 0.9 | 1.7 | 0.00 | 0.01 | 0.00 | 89 | 1012.1 |
| 20260503070506 | 38 | 259 | 0.9 | 1.7 | 0.00 | 0.01 | 0.00 | 89 | 1012.1 |
| 20260503055006 | 39 | 251 | 0.9 | 1.7 | 0.00 | 0.01 | 0.00 | 89 | 1012.3 |
| 20260503054500 | 39 | 251 | 0.9 | 1.7 | 0.00 | 0.01 | 0.00 | 89 | 1012.4 |